Weather in Klepinino

Russia / Republic of Crimea     45°31′39″N   34°11′03″E
temp.,
°C
wind,
m/s
gust,
m/s
humid.,
%
clouds,
%
prec.,
mm/h
press.,
hPa
HPBL,
m
7 may, fri
fri700:00+10wsw3474100 0.0 101478
03:00+9w347898 0.0 101560
06:00+9wsw33780 0.0 101650
09:00+16wnw22715 0.0 1016556
12:00+21ssw0149100 0.0 10161314
15:00+22sw2339100 0.0 10152007
18:00+21wsw444537 0.0 1014760
21:00+13sw226967 0.0 101416
8 may, sat
sat800:00+13sse2371100 0.0 101324
03:00+12ssw2265100 0.0 101216
06:00+13s2257100 0.0 101124
09:00+19se234775 0.0 1011317
12:00+24nnw3338100 0.0 10111628
15:00+21nnw77567 0.0 1010811
18:00+14nnw91276100 0.1 1012739
21:00+12nnw71278100 0.5 1014848
9 may, sun
sun900:00+10n5989100 2.3 10171008
03:00+9nnw51178100 2.9 1017457
06:00+6nnw5108611 0.0 1021443
09:00+10nnw576525 0.0 10221124
12:00+14nnw68465 0.0 10231826
15:00+15nw673780 0.0 10242558
18:00+15nnw57398 0.0 10242348
21:00+9wnw496674 0.0 1027164
10 may, mon
mon1000:00+8nw33725 0.0 102731
03:00+7nw22755 0.0 102713
06:00+6nw23800 0.0 102736
09:00+13n46513 0.0 10271542
12:00+15n56355 0.0 10262248
15:00+16nnw66346 0.0 10242432
18:00+15n4744100 0.0 1023724
21:00+10w4867100 0.0 1022122
11 may, tue
tue1100:00+9wnw486898 0.0 1020159
03:00+11nw41059100 0.0 1018631
06:00+10nw51073100 0.1 1017606
09:00+11wnw597986 0.1 1016566
12:00+14nnw4779100 0.1 1015628
15:00+16nw597171 0.1 1013802
18:00+13ne5879100 1.1 1014857
21:00+9nw228173 1.2 101428